Home   Weather   West End of London   Past weeks
Flag for United Kingdom

Past Weather in West End of London, England, United Kingdom — Yesterday and Last 2 Weeks

Now
72 °F

Partly sunny.


Feels Like: 74 °F
Forecast: 89 / 64 °F
Wind: 13 mph from Southwest

Location: Northolt

Current Time: Jul 22, 2019 at 11:06:24 am

Latest Report: Jul 22, 2019 at 9:50 am


Visibility: N/A

Pressure: 30.18 "Hg

Humidity: 73%

Dew Point: 63 °F

Location of West End of LondonLocation

Past Weather in West End of London — Graph

°F

West End of London Temperature Yesterday

Maximum temperature yesterday: 75 °F (at 1:50 pm)
Minimum temperature yesterday: 54 °F (at 4:50 am)
Average temperature yesterday: 66 °F

High & Low Weather Summary for the Past Weeks

 TemperatureHumidityPressure
High81 °F (Jul 16, 5:22 pm)100% (Jul 18, 7:20 am)30.24 "Hg (Jul 18, 7:20 am)
Low50 °F (Jul 16, 5:50 am)32% (Jul 16, 3:20 pm)29.68 "Hg (Jul 20, 5:50 am)
Average67 °F66%30.03 "Hg
* Reported Jul 7 9:21 am — Jul 22 9:50 am, West End of London. Weather by CustomWeather, © 2019

Note: Actual official high and low records may vary slightly from our data, if they occured in-between our weather recording intervals... More about our weather records

Advertising

West End of London Weather History for the Previous 24 Hours

Scroll right to see more
 ConditionsComfort  
Time TempWeatherWind HumidityBarometerVisibility
9:50 am
Mon, Jul 22
72 °FPartly sunny.13 mph73%30.18 "HgN/A
9:21 am70 °FPartly sunny.9 mph78%30.18 "HgN/A
8:50 am68 °FScattered clouds.9 mph78%30.18 "HgN/A
8:19 am68 °FBroken clouds.13 mph78%30.18 "HgN/A
7:50 am66 °FBroken clouds.10 mph78%30.15 "HgN/A
7:23 am66 °FBroken clouds.13 mph78%30.15 "HgN/A
6:50 am64 °FBroken clouds.7 mph83%30.15 "HgN/A
5:50 am64 °FOvercast.N/A83%30.15 "HgN/A
4:50 am63 °FOvercast.N/A88%30.15 "HgN/A
3:50 am63 °FOvercast.N/A83%30.15 "HgN/A
2:50 am63 °FPassing clouds.N/A83%30.15 "HgN/A
1:50 am61 °FPassing clouds.N/A88%30.15 "HgN/A
12:50 am61 °FPassing clouds.N/A88%30.15 "HgN/A
11:50 pm
Sun, Jul 21
63 °FClear.N/A83%30.15 "HgN/A
10:50 pm64 °FPassing clouds.N/A73%30.15 "HgN/A
9:50 pm66 °FOvercast.N/A64%30.15 "HgN/A
9:20 pm66 °FClear.7 mph64%30.15 "Hg10 mi
8:50 pm68 °FSunny.7 mph60%30.15 "Hg10 mi
8:20 pm68 °FPartly sunny.9 mph60%30.15 "HgN/A
7:50 pm70 °FPartly sunny.9 mph57%30.15 "HgN/A
7:20 pm70 °FPartly sunny.8 mph60%30.15 "HgN/A
6:50 pm72 °FPartly sunny.12 mph53%30.15 "HgN/A
6:21 pm72 °FPartly sunny.13 mph53%30.15 "HgN/A
5:50 pm72 °FBroken clouds.13 mph61%30.15 "HgN/A
5:20 pm72 °FBroken clouds.8 mph57%30.12 "HgN/A
4:50 pm72 °FBroken clouds.14 mph57%30.15 "HgN/A
4:20 pm72 °FPartly sunny.13 mph57%30.15 "HgN/A
3:50 pm72 °FPartly sunny.14 mph57%30.15 "HgN/A
3:20 pm72 °FPartly sunny.12 mph61%30.15 "HgN/A
2:24 pm73 °FBroken clouds.14 mph50%30.15 "HgN/A
1:50 pm75 °FPartly sunny.14 mph50%30.15 "HgN/A
1:22 pm73 °FBroken clouds.10 mph50%30.15 "HgN/A
12:50 pm72 °FBroken clouds.12 mph57%30.15 "HgN/A
11:50 am70 °FBroken clouds.14 mph57%30.15 "HgN/A
11:21 am70 °FBroken clouds.14 mph60%30.15 "HgN/A
Weather by CustomWeather, © 2019

See weather overview